Regional Weather Roundup
Issued by NWS

Home | Current Version | Previous Version | Graphics & Text | Print | Product List | Glossary On
Versions: 1 2 3 4 5 6 7 8 9 10 11 12 13 14 15 16 17 18 19 20 21 22 23 24 25 26 27 28 29 30 31 32 33 34 35 36 37 38 39 40 41 42 43 44 45 46 47 48 49 50
000
ASUS44 KMEG 202010
RWRTN
TENNESSEE HOURLY STATE WEATHER ROUNDUP
NATIONAL WEATHER SERVICE MEMPHIS TN
300 PM CDT MON OCT 20 2014

TNZ002-004-019-021-049-052-054-088>092-202100-
WEST TENNESSEE

CITY           SKY/WX    TMP DP  RH WIND       PRES   REMARKS
MEMPHIS INTL   MOSUNNY   71  51  49 SW7       30.03F
NWS MEMPHIS      N/A     70 N/A N/A MISG        N/A
JACKSON        CLOUDY    69  49  48 SW9       30.01F
DYERSBURG      PTSUNNY   70  46  43 SW8       30.01F
UNION CITY     MOSUNNY   72  52  49 W8        29.98S
PARIS          PTSUNNY   66  50  55 SW10      30.00S
HUNTINGDON     CLOUDY    67  49  52 W9        30.00S
LEXINGTON      MOSUNNY   68  50  52 SW6       30.00F
SAVANNAH       MOSUNNY   70  48  46 S6        30.02F
$$

TNZ008-025-027-028-033-062-065-066-202100-
NORTH MIDDLE TENNESSEE

CITY           SKY/WX    TMP DP  RH WIND       PRES   REMARKS
NASHVILLE      PTSUNNY   67  47  48 SW5       30.00F
CLARKSVILLE    SUNNY     68  50  52 SW10      29.98F
SMYRNA         MOSUNNY   66  47  50 W7        30.01F
COOKEVILLE     MOSUNNY   66  52  59 W6        30.00F
CROSSVILLE     CLOUDY    62  47  57 W7        30.02F
$$

TNZ061-075-076-078-094-096-097-202100-
SOUTH MIDDLE TENNESSEE

CITY           SKY/WX    TMP DP  RH WIND       PRES   REMARKS
FAYETTEVILLE   MOSUNNY   64  46  52 W18G39    30.02F
TULLAHOMA      MOSUNNY   64  46  52 W7        30.03F
WINCHESTER     MOSUNNY   64  48  55 W8        30.02F
MCMINNVILLE    MOSUNNY   66  52  59 S5        30.01S
COLUMBIA       MOSUNNY   64  52  63 W6        30.00F
SHELBYVILLE    MOSUNNY   66  48  52 SW7       30.02F
$$

TNZ017-018-042-046-047-202100-
NORTHEAST TENNESSEE

CITY           SKY/WX    TMP DP  RH WIND       PRES   REMARKS
TRI CITIES     CLOUDY    63  47  55 W6        30.01S
ELIZABETHTON   CLEAR     63  46  55 W5        30.01S
$$

TNZ012-013-036-069-073-074-202100-
CENTRAL EAST TENNESSEE

CITY           SKY/WX    TMP DP  RH WIND       PRES   REMARKS
KNOXVILLE      CLOUDY    65  50  58 W7        29.99F
OAK RIDGE      CLOUDY    66  48  52 SW7       30.01F
GATLINBURG     PTCLDY    66  48  52 W6        30.00S
MORRISTOWN     CLEAR     64  50  59 W7        30.02S
$$

TNZ083-085-099-202100-
SOUTHEAST TENNESSEE

CITY           SKY/WX    TMP DP  RH WIND       PRES   REMARKS
CHATTANOOGA    PTSUNNY   71  50  47 W8        30.00F
$$

SKY/WX REPORTED AS FAIR MEANS FEW OR NO CLOUDS BELOW
12 THOUSAND FEET.



USA.gov is the U.S. government's official web portal to all federal, state and local government web resources and services.